TimeEDT,TemperatureF,Dew PointF,Humidity,Sea Level PressureIn,VisibilityMPH,Wind Direction,Wind SpeedMPH,Gust SpeedMPH,PrecipitationIn,Events,Conditions,WindDirDegrees,DateUTC
1:54 AM,48.9,48.0,97,29.94,0.5,SW,3.5,-,N/A,Fog,Fog,220,2013-05-10 05:54:00
2:34 AM,50.0,48.2,94,29.94,1.2,Calm,Calm,-,N/A,,Scattered Clouds,0,2013-05-10 06:34:00
2:54 AM,50.0,48.9,96,29.95,1.5,SSW,3.5,-,N/A,,Partly Cloudy,210,2013-05-10 06:54:00
2:58 AM,50.0,48.2,94,29.95,3.0,Calm,Calm,-,N/A,,Partly Cloudy,0,2013-05-10 06:58:00
3:18 AM,50.0,48.2,94,29.94,1.5,Calm,Calm,-,0.00,Rain,Light Rain,0,2013-05-10 07:18:00
3:20 AM,48.2,48.2,100,29.94,0.8,Calm,Calm,-,0.00,Rain,Light Rain,0,2013-05-10 07:20:00
3:54 AM,46.9,46.0,97,29.95,0.8,SSW,4.6,-,0.00,,Mist,210,2013-05-10 07:54:00
3:56 AM,48.2,46.4,93,29.95,1.5,SSW,4.6,-,N/A,,Partly Cloudy,210,2013-05-10 07:56:00
3:59 AM,48.2,46.4,93,29.95,3.0,SW,4.6,-,N/A,,Partly Cloudy,220,2013-05-10 07:59:00
4:10 AM,48.2,46.4,93,29.95,1.8,Calm,Calm,-,N/A,,Partly Cloudy,0,2013-05-10 08:10:00
4:14 AM,48.2,46.4,93,29.94,0.8,Calm,Calm,-,N/A,,Mist,0,2013-05-10 08:14:00
4:54 AM,48.9,46.9,93,29.95,0.2,SSW,3.5,-,N/A,Fog,Fog,200,2013-05-10 08:54:00
5:25 AM,50.0,48.2,94,29.96,1.2,SSW,5.8,-,0.00,Rain,Light Rain,210,2013-05-10 09:25:00
5:28 AM,48.2,46.4,93,29.96,3.0,SSW,5.8,-,0.00,Rain,Light Rain,200,2013-05-10 09:28:00
5:54 AM,50.0,48.9,96,29.97,5.0,South,4.6,-,0.00,,Clear,190,2013-05-10 09:54:00
6:54 AM,53.1,52.0,96,29.98,5.0,SSW,3.5,-,N/A,,Clear,210,2013-05-10 10:54:00
9:54 AM,66.9,57.9,73,29.99,10.0,WSW,4.6,-,N/A,,Clear,240,2013-05-10 13:54:00
10:54 AM,71.1,55.9,59,29.98,10.0,Calm,Calm,-,N/A,,Clear,0,2013-05-10 14:54:00
11:54 AM,73.9,55.0,52,29.96,10.0,Calm,Calm,-,N/A,,Clear,0,2013-05-10 15:54:00
1:54 PM,75.0,55.0,50,29.94,10.0,South,6.9,-,N/A,,Clear,180,2013-05-10 17:54:00
2:54 PM,75.9,55.9,50,29.93,10.0,SSW,6.9,-,N/A,,Clear,210,2013-05-10 18:54:00
3:54 PM,75.9,55.9,50,29.91,10.0,South,6.9,-,N/A,,Scattered Clouds,190,2013-05-10 19:54:00
4:54 PM,75.0,55.9,51,29.90,10.0,SSW,4.6,-,N/A,,Overcast,200,2013-05-10 20:54:00
5:54 PM,75.0,57.0,53,29.90,10.0,South,3.5,-,N/A,,Mostly Cloudy,170,2013-05-10 21:54:00
6:54 PM,71.1,57.9,63,29.91,10.0,NNW,6.9,-,0.00,,Mostly Cloudy,330,2013-05-10 22:54:00
7:54 PM,66.9,57.9,73,29.88,10.0,Calm,Calm,-,0.00,,Partly Cloudy,0,2013-05-10 23:54:00
8:54 PM,63.0,57.0,81,29.88,10.0,Calm,Calm,-,N/A,,Clear,0,2013-05-11 00:54:00
9:54 PM,63.0,57.9,84,29.89,10.0,Calm,Calm,-,N/A,,Clear,0,2013-05-11 01:54:00
10:54 PM,61.0,57.0,87,29.88,10.0,Calm,Calm,-,N/A,,Clear,0,2013-05-11 02:54:00
11:54 PM,62.1,57.0,84,29.88,10.0,South,3.5,-,N/A,,Mostly Cloudy,190,2013-05-11 03:54:00